Tracking 35331 objects as of 15-Sep-2026
HD Live streaming from Space Station
objects crossing your sky now

SL-4 R/B


SL-4 R/B is no longer on orbit


NORAD ID: 20321
Int'l Code: 1989-088B
Launch date: November 17, 1989
Source: Commonwealth of Independent States (former USSR) (CIS)
Launch site: TYURATAM MISSILE AND SPACE COMPLEX (TTMTR)
Decay date: 1989-11-19

Note: This is a ROCKET BODY
Your satellite tracking list
Your tracking list is empty




NASA's NSSDC Master Catalog

Two Line Element Set (TLE):
1 20321U 89088  B 89323.29030556  .11542519 +37114-4 +47647-3 0  9995
2 20321 064.7885 247.6178 0029521 074.4489 286.1670 16.39825156000307
Source of the keplerian elements: AFSPC